Flag for India Weather past 2 weeks in Thiruvananthapuram, Kerala, India

Now
88 °F

Scattered clouds.


Feels Like: 102 °F
Forecast: 77 / 85 °F
Wind: 6 mph from Southwest

Location: Thiruvananthapuram

Current Time: Oct 24, 2014 at 3:53:20 PM

Latest Report: Oct 24, 2014 at 3:10 PM


Visibility: 4 mi

Pressure: 29.77 "Hg

Humidity: 75%

Dew point: 79 °F

Location of ThiruvananthapuramLocation

Historic Weather in Thiruvananthapuram — Graph

°F

Thiruvananthapuram temperature yesterday

Maximum temperature yesterday: 84 °F (at 12:10 PM)
Minimum temperature yesterday: 75 °F (at 11:40 PM)
Average temperature yesterday: 80 °F

Past Weeks' High & Low Weather Summary

 TemperatureHumidityPressure
High90 °F (Oct 11, 3:10 PM)100% (Oct 19, 7:40 PM)29.92 "Hg (Oct 19, 7:40 PM)
Low45 °F (Oct 19, 7:40 PM)66% (Oct 13, 9:40 AM)27.23 "Hg (Oct 12, 8:40 PM)
Average82 °F81%29.80 "Hg
* Reported Oct 9 2:40 PM — Oct 24 2:40 PM, Thiruvananthapuram, Weather by CustomWeather, © 2014

Note: Actual official high and low records may vary slightly from our data, if they occured in-between our weather recording intervals... More about our weather records

Advertising

Thiruvananthapuram weather history for previous 24 hours

 ConditionsComfort  
Time TempWeatherWind HumidityBarometerVisibility
2:40 PM
Oct 24
90 °FPassing clouds.No wind71%29.77 "Hg4 mi
2:10 PM90 °FPassing clouds.6 mph71%29.77 "Hg4 mi
1:40 PM90 °FPassing clouds.5 mph71%29.77 "Hg4 mi
1:10 PM88 °FPassing clouds.5 mph75%29.80 "Hg4 mi
12:40 PM88 °FScattered clouds.5 mph75%29.80 "Hg4 mi
12:10 PM86 °FPassing clouds.6 mph75%29.83 "Hg4 mi
11:40 AM86 °FPassing clouds.5 mph75%29.83 "Hg4 mi
11:10 AM86 °FPassing clouds.5 mph75%29.86 "Hg4 mi
10:40 AM84 °FScattered clouds.3 mph79%29.86 "Hg4 mi
10:10 AM84 °FScattered clouds.3 mph79%29.89 "Hg3 mi
9:40 AM82 °FScattered clouds.No wind84%29.89 "Hg3 mi
9:10 AM82 °FHaze.2 mph84%29.89 "Hg2 mi
8:40 AM81 °FScattered clouds.No wind89%29.89 "Hg2 mi
8:10 AM81 °FHaze.No wind89%29.86 "Hg2 mi
7:40 AM79 °FBroken clouds.No wind89%29.86 "Hg2 mi
7:10 AM79 °FBroken clouds.No wind89%29.86 "Hg2 mi
6:40 AM77 °FDrizzle. More clouds than sun.No wind89%29.83 "Hg2 mi
6:10 AM77 °FPartly cloudy.No wind89%29.83 "Hg2 mi
5:40 AM75 °FDrizzle. Mostly cloudy.No wind94%29.83 "Hg2 mi
5:10 AM75 °FRain. Mostly cloudy.No wind94%29.80 "Hg1 mi
4:40 AM75 °FPartly cloudy.No wind94%29.80 "Hg2 mi
3:40 AM75 °FPartly cloudy.No wind94%29.83 "Hg2 mi
2:40 AM77 °FPartly cloudy.No wind89%29.83 "Hg2 mi
1:40 AM75 °FPartly cloudy.No wind94%29.83 "Hg2 mi
1:10 AM75 °FPartly cloudy.No wind94%29.83 "Hg2 mi
12:40 AM75 °FPartly cloudy.No wind94%29.86 "Hg2 mi
12:10 AM75 °FPartly cloudy.No wind94%29.86 "Hg2 mi
11:40 PM
Oct 23
75 °FPartly cloudy.No wind94%29.86 "Hg2 mi
11:10 PM77 °FPartly cloudy.No wind89%29.89 "Hg2 mi
10:40 PM77 °FPartly cloudy.No wind94%29.89 "Hg2 mi
10:10 PM77 °FPartly cloudy.No windN/A29.89 "Hg2 mi
9:40 PM77 °FPartly cloudy.No wind94%29.89 "Hg2 mi
9:10 PM77 °FPartly cloudy.No wind94%29.89 "Hg2 mi
8:40 PM77 °FPartly cloudy.3 mph94%29.89 "Hg2 mi
8:10 PM77 °FPassing clouds.3 mph94%29.86 "Hg2 mi
7:40 PM77 °FDrizzle. Mostly cloudy.2 mph94%29.86 "Hg2 mi
7:10 PM77 °FLight rain. Mostly cloudy.2 mph94%29.83 "Hg2 mi
6:40 PM77 °FLight rain. Mostly cloudy.No wind100%29.83 "Hg2 mi
6:10 PM77 °FLight rain. More clouds than sun.No wind100%29.83 "Hg2 mi
5:40 PM79 °FThunderstorms. More clouds than sun.No wind94%29.80 "Hg2 mi
5:10 PM81 °FThunderstorms. More clouds than sun.No wind89%29.80 "Hg2 mi
4:10 PM82 °FThunderstorms. More clouds than sun.No wind84%29.80 "Hg2 mi
3:40 PM84 °FThunderstorms. More clouds than sun.No wind79%29.80 "Hg2 mi
3:10 PM84 °FScattered clouds.No wind79%29.80 "Hg2 mi
Weather by CustomWeather, © 2014

See weather overviewHow to use our weather pages